Location: Bruderhein
(53.8035°N, 112.9265°W)
Time: 03:32:02
(UTC+00:00)

BEESAT - Pass Details

Date: 10 April 2023
Orbit: 696 x 706 km, 98.5° (Epoch: 31 May)

Event Time Altitude Azimuth Distance (km) Brightness Sun altitude
Rises 03:26:02 0° 27° (NNE) 3,110 ? -9.6°
Reaches altitude 10° 03:29:09 10° 49° (NE) 2,183 ? -10.0°
Maximum altitude 03:32:07 16° 87° (E) 1,784 ? -10.4°
Enters shadow 03:33:45 14° 111° (ESE) 1,907 ? -10.6°
